World > North America > United States > New York
Hourly regional weather for Millers Mills, New YorkMillers Mills, New York Regional Hourly Weather

Millers Mills, New York Regional Weather

regional weather millers mills, nyHOURLY REGIONAL WEATHER FOR MILLERS MILLS, NY
Lat: 42.92N, Lon: 75.08W 
Web Search

Pass this page to a friend. Tell them to point their camera at the QR Code near the bottom of this page.

Feedback


°F Click to change Millers Mills hourly weather to Imperial units.Click to change Millers Mills hourly weather to Metric units. °C
Millers Mills Weather Map
UTC Time: 8/2/2021, 21:34
Your Time:

Millers Mills, NY Regional Weather

Expires:202108022200;;877384
ASUS41 KGYX 022110
RWRGYX
WEATHER ROUNDUP FOR MAINE AND NEW HAMPSHIRE
NATIONAL WEATHER SERVICE GRAY ME
500 PM EDT MON AUG 02 2021


MAZ007-012-024-CTZ003-RIZ002-NYZ038-NYZ072-022200-
SOUTHERN NEW ENGLAND AND NY
  
CITY           SKY/WX    TMP DP  RH WIND       PRES   REMARKS
BOSTON         MOSUNNY   81  54  39 NW12      29.91R                  
WORCESTER      SUNNY     75  51  43 N13       29.97R                  
NANTUCKET      SUNNY     78  64  61 W16       29.92R                  
PROVIDENCE     MOSUNNY   81  56  42 NW9       29.92S                  
HARTFORD       MOSUNNY   80  55  42 N8G17     29.95R                  
ALBANY         MOSUNNY   74  49  41 W15       29.97R                  
NEW YORK CITY  MOSUNNY   81  51  35 NW8       29.97R                  
$$


SKY/WX - Weather  TMP - Temperature  DP - Dew Point  RH - Relative Humidity
WIND - Wind Direction/Speed PRES - Barometric Pressure VSB - Visibility
WCI - Wind Chill Index E13G22 Wind - East Wind 13 mph/Gusts of 22 mph